Year,Month,Day,Hour,Minute,Value (Times are PST for temperature in C)
2014,04,13,00,00,6.50
2014,04,13,00,01,6.40
2014,04,13,00,02,6.40
2014,04,13,00,03,6.40
2014,04,13,00,04,6.40
2014,04,13,00,05,6.40
2014,04,13,00,06,6.40
2014,04,13,00,07,6.40
2014,04,13,00,08,6.40
2014,04,13,00,09,6.40
2014,04,13,00,10,6.40
2014,04,13,00,11,6.40
2014,04,13,00,12,6.40
2014,04,13,00,13,6.40
2014,04,13,00,14,6.40
2014,04,13,00,15,6.30
2014,04,13,00,16,6.30
2014,04,13,00,17,6.30
2014,04,13,00,18,6.30
2014,04,13,00,19,6.30
2014,04,13,00,20,6.30
2014,04,13,00,21,6.30
2014,04,13,00,22,6.30
2014,04,13,00,23,6.20
2014,04,13,00,24,6.20
2014,04,13,00,25,6.20
2014,04,13,00,26,6.20
2014,04,13,00,27,6.20
2014,04,13,00,28,6.20
2014,04,13,00,29,6.10
2014,04,13,00,30,6.10
2014,04,13,00,31,6.00
2014,04,13,00,32,6.00
2014,04,13,00,33,5.90
2014,04,13,00,34,5.90
2014,04,13,00,35,5.90
2014,04,13,00,36,5.90
2014,04,13,00,37,5.80
2014,04,13,00,38,5.80
2014,04,13,00,39,5.70
2014,04,13,00,40,5.70
2014,04,13,00,41,5.70
2014,04,13,00,42,5.70
2014,04,13,00,43,5.70
2014,04,13,00,44,5.70
2014,04,13,00,45,5.70
2014,04,13,00,46,5.70
2014,04,13,00,47,5.70
2014,04,13,00,48,5.70
2014,04,13,00,49,5.70
2014,04,13,00,50,5.70
2014,04,13,00,51,5.70
2014,04,13,00,52,5.70
2014,04,13,00,53,5.70
2014,04,13,00,54,5.70
2014,04,13,00,55,5.70
2014,04,13,00,56,5.70
2014,04,13,00,57,5.70
2014,04,13,00,58,5.70
2014,04,13,00,59,5.70
2014,04,13,01,00,5.70
2014,04,13,01,01,5.70
2014,04,13,01,02,5.70
2014,04,13,01,03,5.70
2014,04,13,01,04,5.70
2014,04,13,01,05,5.70
2014,04,13,01,06,5.70
2014,04,13,01,07,5.70
2014,04,13,01,08,5.70
2014,04,13,01,09,5.70
2014,04,13,01,10,5.70
2014,04,13,01,11,5.70
2014,04,13,01,12,5.60
2014,04,13,01,13,5.60
2014,04,13,01,14,5.60
2014,04,13,01,15,5.60
2014,04,13,01,16,5.60
2014,04,13,01,17,5.60
2014,04,13,01,18,5.60
2014,04,13,01,19,5.60
2014,04,13,01,20,5.60
2014,04,13,01,21,5.60
2014,04,13,01,22,5.60
2014,04,13,01,23,5.60
2014,04,13,01,24,5.60
2014,04,13,01,25,5.60
2014,04,13,01,26,5.60
2014,04,13,01,27,5.60
2014,04,13,01,28,5.60
2014,04,13,01,29,5.60
2014,04,13,01,30,5.50
2014,04,13,01,31,5.50
2014,04,13,01,32,5.50
2014,04,13,01,33,5.50
2014,04,13,01,34,5.50
2014,04,13,01,35,5.40
2014,04,13,01,36,5.40
2014,04,13,01,37,5.30
2014,04,13,01,38,5.30
2014,04,13,01,39,5.30
2014,04,13,01,40,5.30
2014,04,13,01,41,5.30
2014,04,13,01,42,5.30
2014,04,13,01,43,5.20
2014,04,13,01,44,5.20
2014,04,13,01,45,5.20
2014,04,13,01,46,5.10
2014,04,13,01,47,5.10
2014,04,13,01,48,5.10
2014,04,13,01,49,5.10
2014,04,13,01,50,5.10
2014,04,13,01,51,5.00
2014,04,13,01,52,4.90
2014,04,13,01,53,4.90
2014,04,13,01,54,4.90
2014,04,13,01,55,4.90
2014,04,13,01,56,4.90
2014,04,13,01,57,4.80
2014,04,13,01,58,4.80
2014,04,13,01,59,4.70
2014,04,13,02,00,4.70
2014,04,13,02,01,4.70
2014,04,13,02,02,4.60
2014,04,13,02,03,4.60
2014,04,13,02,04,4.60
2014,04,13,02,05,4.60
2014,04,13,02,06,4.60
2014,04,13,02,07,4.60
2014,04,13,02,08,4.60
2014,04,13,02,09,4.60
2014,04,13,02,10,4.60
2014,04,13,02,11,4.50
2014,04,13,02,12,4.50
2014,04,13,02,13,4.50
2014,04,13,02,14,4.50
2014,04,13,02,15,4.50
2014,04,13,02,16,4.50
2014,04,13,02,17,4.50
2014,04,13,02,18,4.50
2014,04,13,02,19,4.50
2014,04,13,02,20,4.50
2014,04,13,02,21,4.40
2014,04,13,02,22,4.40
2014,04,13,02,23,4.40
2014,04,13,02,24,4.40
2014,04,13,02,25,4.40
2014,04,13,02,26,4.40
2014,04,13,02,27,4.40
2014,04,13,02,28,4.40
2014,04,13,02,29,4.40
2014,04,13,02,30,4.40
2014,04,13,02,31,4.30
2014,04,13,02,32,4.30
2014,04,13,02,33,4.40
2014,04,13,02,34,4.40
2014,04,13,02,35,4.40
2014,04,13,02,36,4.40
2014,04,13,02,37,4.40
2014,04,13,02,38,4.50
2014,04,13,02,39,4.50
2014,04,13,02,40,4.60
2014,04,13,02,41,4.60
2014,04,13,02,42,4.60
2014,04,13,02,43,4.60
2014,04,13,02,44,4.70
2014,04,13,02,45,4.70
2014,04,13,02,46,4.70
2014,04,13,02,47,4.70
2014,04,13,02,48,4.70
2014,04,13,02,49,4.70
2014,04,13,02,50,4.70
2014,04,13,02,51,4.70
2014,04,13,02,52,4.80
2014,04,13,02,53,4.80
2014,04,13,02,54,4.90
2014,04,13,02,55,5.00
2014,04,13,02,56,5.10
2014,04,13,02,57,5.20
2014,04,13,02,58,5.30
2014,04,13,02,59,5.40
2014,04,13,03,00,5.50
2014,04,13,03,01,5.60
2014,04,13,03,02,5.70
2014,04,13,03,03,5.70
2014,04,13,03,04,5.80
2014,04,13,03,05,5.90
2014,04,13,03,06,6.00
2014,04,13,03,07,6.10
2014,04,13,03,08,6.10
2014,04,13,03,09,6.20
2014,04,13,03,10,6.20
2014,04,13,03,11,6.20
2014,04,13,03,12,6.30
2014,04,13,03,13,6.30
2014,04,13,03,14,6.40
2014,04,13,03,15,6.40
2014,04,13,03,16,6.40
2014,04,13,03,17,6.40
2014,04,13,03,18,6.40
2014,04,13,03,19,6.30
2014,04,13,03,20,6.30
2014,04,13,03,21,6.30
2014,04,13,03,22,6.20
2014,04,13,03,23,6.20
2014,04,13,03,24,6.10
2014,04,13,03,25,6.00
2014,04,13,03,26,6.00
2014,04,13,03,27,5.90
2014,04,13,03,28,5.90
2014,04,13,03,29,5.80
2014,04,13,03,30,5.80
2014,04,13,03,31,5.70
2014,04,13,03,32,5.70
2014,04,13,03,33,5.70
2014,04,13,03,34,5.80
2014,04,13,03,35,5.80
2014,04,13,03,36,5.80
2014,04,13,03,37,5.80
2014,04,13,03,38,5.90
2014,04,13,03,39,5.90
2014,04,13,03,40,6.00
2014,04,13,03,41,6.00
2014,04,13,03,42,6.10
2014,04,13,03,43,6.20
2014,04,13,03,44,6.20
2014,04,13,03,45,6.20
2014,04,13,03,46,6.30
2014,04,13,03,47,6.30
2014,04,13,03,48,6.40
2014,04,13,03,49,6.40
2014,04,13,03,50,6.40
2014,04,13,03,51,6.40
2014,04,13,03,52,6.40
2014,04,13,03,53,6.40
2014,04,13,03,54,6.40
2014,04,13,03,55,6.40
2014,04,13,03,56,6.40
2014,04,13,03,57,6.30
2014,04,13,03,58,6.30
2014,04,13,03,59,6.30
2014,04,13,04,00,6.30
2014,04,13,04,01,6.20
2014,04,13,04,02,6.20
2014,04,13,04,03,6.20
2014,04,13,04,04,6.20
2014,04,13,04,05,6.20
2014,04,13,04,06,6.20
2014,04,13,04,07,6.20
2014,04,13,04,08,6.20
2014,04,13,04,09,6.20
2014,04,13,04,10,6.20
2014,04,13,04,11,6.20
2014,04,13,04,12,6.20
2014,04,13,04,13,6.20
2014,04,13,04,14,6.20
2014,04,13,04,15,6.30
2014,04,13,04,16,6.30
2014,04,13,04,17,6.30
2014,04,13,04,18,6.30
2014,04,13,04,19,6.30
2014,04,13,04,20,6.30
2014,04,13,04,21,6.30
2014,04,13,04,22,6.30
2014,04,13,04,23,6.30
2014,04,13,04,24,6.20
2014,04,13,04,25,6.20
2014,04,13,04,26,6.30
2014,04,13,04,27,6.30
2014,04,13,04,28,6.30
2014,04,13,04,29,6.20
2014,04,13,04,30,6.20
2014,04,13,04,31,6.20
2014,04,13,04,32,6.20
2014,04,13,04,33,6.20
2014,04,13,04,34,6.20
2014,04,13,04,35,6.30
2014,04,13,04,36,6.30
2014,04,13,04,37,6.30
2014,04,13,04,38,6.30
2014,04,13,04,39,6.30
2014,04,13,04,40,6.30
2014,04,13,04,41,6.30
2014,04,13,04,42,6.30
2014,04,13,04,43,6.30
2014,04,13,04,44,6.30
2014,04,13,04,45,6.30
2014,04,13,04,46,6.40
2014,04,13,04,47,6.40
2014,04,13,04,48,6.40
2014,04,13,04,49,6.40
2014,04,13,04,50,6.40
2014,04,13,04,51,6.40
2014,04,13,04,52,6.40
2014,04,13,04,53,6.40
2014,04,13,04,54,6.40
2014,04,13,04,55,6.40
2014,04,13,04,56,6.40
2014,04,13,04,57,6.50
2014,04,13,04,58,6.60
2014,04,13,04,59,6.60
2014,04,13,05,00,6.60
2014,04,13,05,01,6.60
2014,04,13,05,02,6.60
2014,04,13,05,03,6.60
2014,04,13,05,04,6.60
2014,04,13,05,05,6.60
2014,04,13,05,06,6.60
2014,04,13,05,07,6.70
2014,04,13,05,08,6.70
2014,04,13,05,09,6.70
2014,04,13,05,10,6.70
2014,04,13,05,11,6.70
2014,04,13,05,12,6.70
2014,04,13,05,13,6.70
2014,04,13,05,14,6.70
2014,04,13,05,15,6.70
2014,04,13,05,16,6.70
2014,04,13,05,17,6.70
2014,04,13,05,18,6.80
2014,04,13,05,19,6.80
2014,04,13,05,20,6.80
2014,04,13,05,21,6.90
2014,04,13,05,22,7.00
2014,04,13,05,23,7.00
2014,04,13,05,24,7.00
2014,04,13,05,25,7.10
2014,04,13,05,26,7.10
2014,04,13,05,27,7.20
2014,04,13,05,28,7.20
2014,04,13,05,29,7.20
2014,04,13,05,30,7.30
2014,04,13,05,31,7.30
2014,04,13,05,32,7.30
2014,04,13,05,33,7.30
2014,04,13,05,34,7.30
2014,04,13,05,35,7.30
2014,04,13,05,36,7.30
2014,04,13,05,37,7.30
2014,04,13,05,38,7.30
2014,04,13,05,39,7.30
2014,04,13,05,40,7.20
2014,04,13,05,41,7.20
2014,04,13,05,42,7.20
2014,04,13,05,43,7.20
2014,04,13,05,44,7.20
2014,04,13,05,45,7.30
2014,04,13,05,46,7.30
2014,04,13,05,47,7.30
2014,04,13,05,48,7.30
2014,04,13,05,49,7.30
2014,04,13,05,50,7.30
2014,04,13,05,51,7.30
2014,04,13,05,52,7.30
2014,04,13,05,53,7.30
2014,04,13,05,54,7.30
2014,04,13,05,55,7.30
2014,04,13,05,56,7.30
2014,04,13,05,57,7.30
2014,04,13,05,58,7.30
2014,04,13,05,59,7.30
2014,04,13,06,00,7.30
2014,04,13,06,01,7.30
2014,04,13,06,02,7.30
2014,04,13,06,03,7.30
2014,04,13,06,04,7.30
2014,04,13,06,05,7.30
2014,04,13,06,06,7.30
2014,04,13,06,07,7.30
2014,04,13,06,08,7.30
2014,04,13,06,09,7.20
2014,04,13,06,10,7.10
2014,04,13,06,11,7.00
2014,04,13,06,12,7.00
2014,04,13,06,13,7.00
2014,04,13,06,14,7.00
2014,04,13,06,15,7.10
2014,04,13,06,16,7.20
2014,04,13,06,17,7.20
2014,04,13,06,18,7.20
2014,04,13,06,19,7.20
2014,04,13,06,20,7.30
2014,04,13,06,21,7.30
2014,04,13,06,22,7.30
2014,04,13,06,23,7.20
2014,04,13,06,24,7.10
2014,04,13,06,25,7.10
2014,04,13,06,26,7.10
2014,04,13,06,27,7.10
2014,04,13,06,28,7.20
2014,04,13,06,29,7.20
2014,04,13,06,30,7.20
2014,04,13,06,31,7.20
2014,04,13,06,32,7.20
2014,04,13,06,33,7.20
2014,04,13,06,34,7.20
2014,04,13,06,35,7.20
2014,04,13,06,36,7.30
2014,04,13,06,37,7.30
2014,04,13,06,38,7.30
2014,04,13,06,39,7.30
2014,04,13,06,40,7.30
2014,04,13,06,41,7.30
2014,04,13,06,42,7.40
2014,04,13,06,43,7.40
2014,04,13,06,44,7.40
2014,04,13,06,45,7.50
2014,04,13,06,46,7.50
2014,04,13,06,47,7.50
2014,04,13,06,48,7.40
2014,04,13,06,49,7.40
2014,04,13,06,50,7.30
2014,04,13,06,51,7.30
2014,04,13,06,52,7.20
2014,04,13,06,53,7.20
2014,04,13,06,54,7.10
2014,04,13,06,55,7.00
2014,04,13,06,56,7.00
2014,04,13,06,57,6.90
2014,04,13,06,58,6.80
2014,04,13,06,59,6.80
2014,04,13,07,00,6.80
2014,04,13,07,01,6.70
2014,04,13,07,02,6.50
2014,04,13,07,03,6.40
2014,04,13,07,04,6.40
2014,04,13,07,05,6.30
2014,04,13,07,06,6.30
2014,04,13,07,07,6.30
2014,04,13,07,08,6.30
2014,04,13,07,09,6.20
2014,04,13,07,10,6.20
2014,04,13,07,11,6.20
2014,04,13,07,12,6.20
2014,04,13,07,13,6.30
2014,04,13,07,14,6.30
2014,04,13,07,15,6.40
2014,04,13,07,16,6.60
2014,04,13,07,17,6.60
2014,04,13,07,18,6.60
2014,04,13,07,19,6.70
2014,04,13,07,20,6.80
2014,04,13,07,21,6.80
2014,04,13,07,22,6.90
2014,04,13,07,23,7.00
2014,04,13,07,24,7.00
2014,04,13,07,25,7.10
2014,04,13,07,26,7.20
2014,04,13,07,27,7.20
2014,04,13,07,28,7.30
2014,04,13,07,29,7.40
2014,04,13,07,30,7.40
2014,04,13,07,31,7.50
2014,04,13,07,32,7.60
2014,04,13,07,33,7.60
2014,04,13,07,34,7.70
2014,04,13,07,35,7.80
2014,04,13,07,36,7.90
2014,04,13,07,37,8.00
2014,04,13,07,38,8.00
2014,04,13,07,39,8.10
2014,04,13,07,40,8.20
2014,04,13,07,41,8.20
2014,04,13,07,42,8.20
2014,04,13,07,43,8.30
2014,04,13,07,44,8.30
2014,04,13,07,45,8.40
2014,04,13,07,46,8.50
2014,04,13,07,47,8.50
2014,04,13,07,48,8.60
2014,04,13,07,49,8.70
2014,04,13,07,50,8.80
2014,04,13,07,51,8.90
2014,04,13,07,52,9.00
2014,04,13,07,53,9.00
2014,04,13,07,54,9.20
2014,04,13,07,55,9.20
2014,04,13,07,56,9.30
2014,04,13,07,57,9.40
2014,04,13,07,58,9.50
2014,04,13,07,59,9.60
2014,04,13,08,00,9.70
2014,04,13,08,01,9.70
2014,04,13,08,02,9.80
2014,04,13,08,03,9.90
2014,04,13,08,04,10.00
2014,04,13,08,05,10.10
2014,04,13,08,06,10.20
2014,04,13,08,07,10.30
2014,04,13,08,08,10.40
2014,04,13,08,09,10.50
2014,04,13,08,10,10.60
2014,04,13,08,11,10.70
2014,04,13,08,12,10.80
2014,04,13,08,13,10.90
2014,04,13,08,14,10.90
2014,04,13,08,15,11.00
2014,04,13,08,16,11.10
2014,04,13,08,17,11.10
2014,04,13,08,18,11.20
2014,04,13,08,19,11.20
2014,04,13,08,20,11.20
2014,04,13,08,21,11.30
2014,04,13,08,22,11.40
2014,04,13,08,23,11.40
2014,04,13,08,24,11.40
2014,04,13,08,25,11.50
2014,04,13,08,26,11.60
2014,04,13,08,27,11.60
2014,04,13,08,28,11.60
2014,04,13,08,29,11.60
2014,04,13,08,30,11.60
2014,04,13,08,31,11.70
2014,04,13,08,32,11.80
2014,04,13,08,33,11.80
2014,04,13,08,34,11.80
2014,04,13,08,35,11.80
2014,04,13,08,36,11.80
2014,04,13,08,37,11.90
2014,04,13,08,38,12.00
2014,04,13,08,39,12.00
2014,04,13,08,40,12.10
2014,04,13,08,41,12.10
2014,04,13,08,42,12.10
2014,04,13,08,43,12.10
2014,04,13,08,44,12.10
2014,04,13,08,45,12.10
2014,04,13,08,46,12.10
2014,04,13,08,47,12.10
2014,04,13,08,48,12.10
2014,04,13,08,49,12.10
2014,04,13,08,50,12.10
2014,04,13,08,51,12.10
2014,04,13,08,52,12.10
2014,04,13,08,53,12.20
2014,04,13,08,54,12.10
2014,04,13,08,55,12.20
2014,04,13,08,56,12.20
2014,04,13,08,57,12.20
2014,04,13,08,58,12.20
2014,04,13,08,59,12.20
2014,04,13,09,00,12.20
2014,04,13,09,01,12.20
2014,04,13,09,02,12.20
2014,04,13,09,03,12.20
2014,04,13,09,04,12.20
2014,04,13,09,05,12.20
2014,04,13,09,06,12.10
2014,04,13,09,07,12.20
2014,04,13,09,08,12.20
2014,04,13,09,09,12.20
2014,04,13,09,10,12.30
2014,04,13,09,11,12.30
2014,04,13,09,12,12.40
2014,04,13,09,13,12.40
2014,04,13,09,14,12.40
2014,04,13,09,15,12.50
2014,04,13,09,16,12.50
2014,04,13,09,17,12.50
2014,04,13,09,18,12.50
2014,04,13,09,19,12.60
2014,04,13,09,20,12.60
2014,04,13,09,21,12.70
2014,04,13,09,22,12.80
2014,04,13,09,23,12.80
2014,04,13,09,24,12.80
2014,04,13,09,25,12.80
2014,04,13,09,26,12.80
2014,04,13,09,27,12.90
2014,04,13,09,28,13.00
2014,04,13,09,29,13.00
2014,04,13,09,30,13.10
2014,04,13,09,31,13.20
2014,04,13,09,32,13.20
2014,04,13,09,33,13.30
2014,04,13,09,34,13.30
2014,04,13,09,35,13.30
2014,04,13,09,36,13.30
2014,04,13,09,37,13.30
2014,04,13,09,38,13.30
2014,04,13,09,39,13.30
2014,04,13,09,40,13.30
2014,04,13,09,41,13.30
2014,04,13,09,42,13.30
2014,04,13,09,43,13.20
2014,04,13,09,44,13.20
2014,04,13,09,45,13.10
2014,04,13,09,46,13.10
2014,04,13,09,47,13.00
2014,04,13,09,48,13.00
2014,04,13,09,49,12.90
2014,04,13,09,50,12.90
2014,04,13,09,51,13.00
2014,04,13,09,52,13.00
2014,04,13,09,53,13.10
2014,04,13,09,54,13.20
2014,04,13,09,55,13.30
2014,04,13,09,56,13.30
2014,04,13,09,57,13.30
2014,04,13,09,58,13.30
2014,04,13,09,59,13.30
2014,04,13,10,00,13.20
2014,04,13,10,01,13.20
2014,04,13,10,02,13.20
2014,04,13,10,03,13.20
2014,04,13,10,04,13.10
2014,04,13,10,05,13.10
2014,04,13,10,06,13.10
2014,04,13,10,07,13.20
2014,04,13,10,08,13.30
2014,04,13,10,09,13.40
2014,04,13,10,10,13.40
2014,04,13,10,11,13.50
2014,04,13,10,12,13.50
2014,04,13,10,13,13.50
2014,04,13,10,14,13.50
2014,04,13,10,15,13.60
2014,04,13,10,16,13.60
2014,04,13,10,17,13.70
2014,04,13,10,18,13.70
2014,04,13,10,19,13.90
2014,04,13,10,20,14.00
2014,04,13,10,21,14.00
2014,04,13,10,22,14.10
2014,04,13,10,23,14.10
2014,04,13,10,24,14.10
2014,04,13,10,25,14.20
2014,04,13,10,26,14.20
2014,04,13,10,27,14.20
2014,04,13,10,28,14.20
2014,04,13,10,29,14.30
2014,04,13,10,30,14.40
2014,04,13,10,31,14.40
2014,04,13,10,32,14.30
2014,04,13,10,33,14.20
2014,04,13,10,34,14.30
2014,04,13,10,35,14.40
2014,04,13,10,36,14.40
2014,04,13,10,37,14.40
2014,04,13,10,38,14.30
2014,04,13,10,39,14.30
2014,04,13,10,40,14.20
2014,04,13,10,41,14.20
2014,04,13,10,42,14.20
2014,04,13,10,43,14.20
2014,04,13,10,44,14.30
2014,04,13,10,45,14.20
2014,04,13,10,46,14.10
2014,04,13,10,47,14.10
2014,04,13,10,48,14.10
2014,04,13,10,49,14.10
2014,04,13,10,50,14.10
2014,04,13,10,51,14.00
2014,04,13,10,52,14.00
2014,04,13,10,53,13.90
2014,04,13,10,54,13.90
2014,04,13,10,55,13.90
2014,04,13,10,56,14.00
2014,04,13,10,57,14.10
2014,04,13,10,58,14.20
2014,04,13,10,59,14.20
2014,04,13,11,00,14.40
2014,04,13,11,01,14.40
2014,04,13,11,02,14.50
2014,04,13,11,03,14.50
2014,04,13,11,04,14.50
2014,04,13,11,05,14.50
2014,04,13,11,06,14.50
2014,04,13,11,07,14.60
2014,04,13,11,08,14.50
2014,04,13,11,09,14.40
2014,04,13,11,10,14.40
2014,04,13,11,11,14.40
2014,04,13,11,12,14.40
2014,04,13,11,13,14.40
2014,04,13,11,14,14.50
2014,04,13,11,15,14.50
2014,04,13,11,16,14.50
2014,04,13,11,17,14.30
2014,04,13,11,18,14.20
2014,04,13,11,19,14.30
2014,04,13,11,20,14.20
2014,04,13,11,21,14.20
2014,04,13,11,22,14.20
2014,04,13,11,23,14.20
2014,04,13,11,24,14.30
2014,04,13,11,25,14.50
2014,04,13,11,26,14.60
2014,04,13,11,27,14.70
2014,04,13,11,28,14.80
2014,04,13,11,29,14.80
2014,04,13,11,30,14.80
2014,04,13,11,31,14.80
2014,04,13,11,32,14.80
2014,04,13,11,33,14.80
2014,04,13,11,34,14.80
2014,04,13,11,35,14.70
2014,04,13,11,36,14.60
2014,04,13,11,37,14.60
2014,04,13,11,38,14.70
2014,04,13,11,39,14.70
2014,04,13,11,40,14.80
2014,04,13,11,41,14.80
2014,04,13,11,42,14.80
2014,04,13,11,43,14.90
2014,04,13,11,44,15.00
2014,04,13,11,45,15.10
2014,04,13,11,46,15.20
2014,04,13,11,47,15.30
2014,04,13,11,48,15.30
2014,04,13,11,49,15.20
2014,04,13,11,50,15.20
2014,04,13,11,51,15.10
2014,04,13,11,52,15.00
2014,04,13,11,53,14.90
2014,04,13,11,54,14.80
2014,04,13,11,55,14.80
2014,04,13,11,56,14.80
2014,04,13,11,57,14.80
2014,04,13,11,58,14.80
2014,04,13,11,59,14.90
2014,04,13,12,00,15.00
2014,04,13,12,01,14.90
2014,04,13,12,02,15.00
2014,04,13,12,03,15.00
2014,04,13,12,04,15.00
2014,04,13,12,05,14.80
2014,04,13,12,06,14.80
2014,04,13,12,07,14.80
2014,04,13,12,08,14.80
2014,04,13,12,09,14.80
2014,04,13,12,10,14.80
2014,04,13,12,11,14.80
2014,04,13,12,12,14.80
2014,04,13,12,13,14.80
2014,04,13,12,14,14.90
2014,04,13,12,15,14.90
2014,04,13,12,16,15.00
2014,04,13,12,17,15.10
2014,04,13,12,18,15.10
2014,04,13,12,19,15.00
2014,04,13,12,20,15.10
2014,04,13,12,21,15.10
2014,04,13,12,22,15.10
2014,04,13,12,23,14.90
2014,04,13,12,24,14.90
2014,04,13,12,25,14.90
2014,04,13,12,26,15.00
2014,04,13,12,27,15.10
2014,04,13,12,28,15.10
2014,04,13,12,29,15.10
2014,04,13,12,30,15.10
2014,04,13,12,31,15.10
2014,04,13,12,32,15.10
2014,04,13,12,33,15.20
2014,04,13,12,34,15.10
2014,04,13,12,35,15.10
2014,04,13,12,36,15.10
2014,04,13,12,37,15.10
2014,04,13,12,38,15.10
2014,04,13,12,39,15.10
2014,04,13,12,40,15.20
2014,04,13,12,41,15.10
2014,04,13,12,42,15.10
2014,04,13,12,43,15.10
2014,04,13,12,44,15.20
2014,04,13,12,45,15.30
2014,04,13,12,46,15.30
2014,04,13,12,47,15.30
2014,04,13,12,48,15.30
2014,04,13,12,49,15.30
2014,04,13,12,50,15.40
2014,04,13,12,51,15.50
2014,04,13,12,52,15.60
2014,04,13,12,53,15.70
2014,04,13,12,54,15.80
2014,04,13,12,55,15.80
2014,04,13,12,56,15.80
2014,04,13,12,57,15.80
2014,04,13,12,58,15.80
2014,04,13,12,59,15.80
2014,04,13,13,00,15.80
2014,04,13,13,01,15.70
2014,04,13,13,02,15.60
2014,04,13,13,03,15.50
2014,04,13,13,04,15.50
2014,04,13,13,05,15.40
2014,04,13,13,06,15.40
2014,04,13,13,07,15.40
2014,04,13,13,08,15.40
2014,04,13,13,09,15.50
2014,04,13,13,10,15.60
2014,04,13,13,11,15.60
2014,04,13,13,12,15.60
2014,04,13,13,13,15.70
2014,04,13,13,14,15.70
2014,04,13,13,15,15.60
2014,04,13,13,16,15.60
2014,04,13,13,17,15.60
2014,04,13,13,18,15.60
2014,04,13,13,19,15.60
2014,04,13,13,20,15.60
2014,04,13,13,21,15.50
2014,04,13,13,22,15.50
2014,04,13,13,23,15.50
2014,04,13,13,24,15.50
2014,04,13,13,25,15.50
2014,04,13,13,26,15.60
2014,04,13,13,27,15.70
2014,04,13,13,28,15.80
2014,04,13,13,29,15.90
2014,04,13,13,30,15.90
2014,04,13,13,31,15.80
2014,04,13,13,32,15.80
2014,04,13,13,33,15.80
2014,04,13,13,34,15.80
2014,04,13,13,35,15.80
2014,04,13,13,36,15.80
2014,04,13,13,37,15.80
2014,04,13,13,38,15.80
2014,04,13,13,39,15.80
2014,04,13,13,40,15.80
2014,04,13,13,41,15.90
2014,04,13,13,42,16.00
2014,04,13,13,43,16.10
2014,04,13,13,44,16.10
2014,04,13,13,45,16.10
2014,04,13,13,46,16.20
2014,04,13,13,47,16.30
2014,04,13,13,48,16.30
2014,04,13,13,49,16.30
2014,04,13,13,50,16.20
2014,04,13,13,51,16.10
2014,04,13,13,52,16.20
2014,04,13,13,53,16.30
2014,04,13,13,54,16.30
2014,04,13,13,55,16.30
2014,04,13,13,56,16.40
2014,04,13,13,57,16.40
2014,04,13,13,58,16.40
2014,04,13,13,59,16.40
2014,04,13,14,00,16.50
2014,04,13,14,01,16.70
2014,04,13,14,02,16.70
2014,04,13,14,03,16.70
2014,04,13,14,04,16.80
2014,04,13,14,05,16.80
2014,04,13,14,06,16.80
2014,04,13,14,07,17.00
2014,04,13,14,08,17.00
2014,04,13,14,09,17.10
2014,04,13,14,10,17.00
2014,04,13,14,11,16.90
2014,04,13,14,12,16.80
2014,04,13,14,13,16.70
2014,04,13,14,14,16.70
2014,04,13,14,15,16.70
2014,04,13,14,16,16.80
2014,04,13,14,17,16.80
2014,04,13,14,18,16.90
2014,04,13,14,19,16.80
2014,04,13,14,20,16.80
2014,04,13,14,21,16.70
2014,04,13,14,22,16.70
2014,04,13,14,23,16.70
2014,04,13,14,24,16.70
2014,04,13,14,25,16.50
2014,04,13,14,26,16.40
2014,04,13,14,27,16.40
2014,04,13,14,28,16.40
2014,04,13,14,29,16.30
2014,04,13,14,30,16.20
2014,04,13,14,31,16.20
2014,04,13,14,32,16.20
2014,04,13,14,33,16.30
2014,04,13,14,34,16.40
2014,04,13,14,35,16.60
2014,04,13,14,36,16.60
2014,04,13,14,37,16.70
2014,04,13,14,38,16.70
2014,04,13,14,39,16.70
2014,04,13,14,40,16.70
2014,04,13,14,41,16.70
2014,04,13,14,42,16.60
2014,04,13,14,43,16.60
2014,04,13,14,44,16.60
2014,04,13,14,45,16.60
2014,04,13,14,46,16.50
2014,04,13,14,47,16.40
2014,04,13,14,48,16.30
2014,04,13,14,49,16.30
2014,04,13,14,50,16.30
2014,04,13,14,51,16.40
2014,04,13,14,52,16.50
2014,04,13,14,53,16.60
2014,04,13,14,54,16.60
2014,04,13,14,55,16.60
2014,04,13,14,56,16.70
2014,04,13,14,57,16.80
2014,04,13,14,58,16.80
2014,04,13,14,59,16.90
2014,04,13,15,00,17.00
2014,04,13,15,01,17.10
2014,04,13,15,02,17.10
2014,04,13,15,03,17.20
2014,04,13,15,04,17.30
2014,04,13,15,05,17.30
2014,04,13,15,06,17.30
2014,04,13,15,07,17.30
2014,04,13,15,08,17.30
2014,04,13,15,09,17.20
2014,04,13,15,10,17.20
2014,04,13,15,11,17.30
2014,04,13,15,12,17.30
2014,04,13,15,13,17.30
2014,04,13,15,14,17.40
2014,04,13,15,15,17.50
2014,04,13,15,16,17.50
2014,04,13,15,17,17.50
2014,04,13,15,18,17.60
2014,04,13,15,19,17.60
2014,04,13,15,20,17.50
2014,04,13,15,21,17.40
2014,04,13,15,22,17.30
2014,04,13,15,23,17.30
2014,04,13,15,24,17.40
2014,04,13,15,25,17.40
2014,04,13,15,26,17.40
2014,04,13,15,27,17.40
2014,04,13,15,28,17.50
2014,04,13,15,29,17.50
2014,04,13,15,30,17.40
2014,04,13,15,31,17.40
2014,04,13,15,32,17.40
2014,04,13,15,33,17.50
2014,04,13,15,34,17.60
2014,04,13,15,35,17.70
2014,04,13,15,36,17.70
2014,04,13,15,37,17.70
2014,04,13,15,38,17.70
2014,04,13,15,39,17.60
2014,04,13,15,40,17.60
2014,04,13,15,41,17.60
2014,04,13,15,42,17.70
2014,04,13,15,43,17.80
2014,04,13,15,44,17.80
2014,04,13,15,45,17.80
2014,04,13,15,46,17.80
2014,04,13,15,47,17.90
2014,04,13,15,48,17.90
2014,04,13,15,49,17.80
2014,04,13,15,50,17.70
2014,04,13,15,51,17.60
2014,04,13,15,52,17.50
2014,04,13,15,53,17.50
2014,04,13,15,54,17.40
2014,04,13,15,55,17.40
2014,04,13,15,56,17.50
2014,04,13,15,57,17.50
2014,04,13,15,58,17.50
2014,04,13,15,59,17.50
2014,04,13,16,00,17.40
2014,04,13,16,01,17.30
2014,04,13,16,02,17.20
2014,04,13,16,03,17.20
2014,04,13,16,04,17.10
2014,04,13,16,05,17.10
2014,04,13,16,06,17.20
2014,04,13,16,07,17.30
2014,04,13,16,08,17.50
2014,04,13,16,09,17.60
2014,04,13,16,10,17.50
2014,04,13,16,11,17.60
2014,04,13,16,12,17.70
2014,04,13,16,13,17.70
2014,04,13,16,14,17.60
2014,04,13,16,15,17.60
2014,04,13,16,16,17.60
2014,04,13,16,17,17.60
2014,04,13,16,18,17.60
2014,04,13,16,19,17.50
2014,04,13,16,20,17.40
2014,04,13,16,21,17.40
2014,04,13,16,22,17.30
2014,04,13,16,23,17.30
2014,04,13,16,24,17.20
2014,04,13,16,25,17.20
2014,04,13,16,26,17.20
2014,04,13,16,27,17.10
2014,04,13,16,28,17.10
2014,04,13,16,29,17.00
2014,04,13,16,30,17.00
2014,04,13,16,31,17.10
2014,04,13,16,32,17.20
2014,04,13,16,33,17.30
2014,04,13,16,34,17.30
2014,04,13,16,35,17.30
2014,04,13,16,36,17.30
2014,04,13,16,37,17.30
2014,04,13,16,38,17.30
2014,04,13,16,39,17.30
2014,04,13,16,40,17.40
2014,04,13,16,41,17.40
2014,04,13,16,42,17.50
2014,04,13,16,43,17.60
2014,04,13,16,44,17.70
2014,04,13,16,45,17.70
2014,04,13,16,46,17.70
2014,04,13,16,47,17.70
2014,04,13,16,48,17.60
2014,04,13,16,49,17.70
2014,04,13,16,50,17.70
2014,04,13,16,51,17.80
2014,04,13,16,52,17.80
2014,04,13,16,53,17.90
2014,04,13,16,54,17.80
2014,04,13,16,55,17.90
2014,04,13,16,56,17.90
2014,04,13,16,57,17.90
2014,04,13,16,58,17.80
2014,04,13,16,59,17.70
2014,04,13,17,00,17.60
2014,04,13,17,01,17.60
2014,04,13,17,02,17.50
2014,04,13,17,03,17.40
2014,04,13,17,04,17.30
2014,04,13,17,05,17.30
2014,04,13,17,06,17.20
2014,04,13,17,07,17.10
2014,04,13,17,08,17.00
2014,04,13,17,09,17.00
2014,04,13,17,10,17.00
2014,04,13,17,11,17.00
2014,04,13,17,12,17.00
2014,04,13,17,13,17.00
2014,04,13,17,14,17.00
2014,04,13,17,15,16.90
2014,04,13,17,16,16.90
2014,04,13,17,17,16.90
2014,04,13,17,18,16.90
2014,04,13,17,19,16.90
2014,04,13,17,20,16.90
2014,04,13,17,21,16.90
2014,04,13,17,22,16.90
2014,04,13,17,23,17.00
2014,04,13,17,24,17.00
2014,04,13,17,25,17.10
2014,04,13,17,26,17.10
2014,04,13,17,27,17.00
2014,04,13,17,28,17.00
2014,04,13,17,29,17.00
2014,04,13,17,30,17.00
2014,04,13,17,31,17.00
2014,04,13,17,32,17.00
2014,04,13,17,33,17.00
2014,04,13,17,34,17.00
2014,04,13,17,35,16.90
2014,04,13,17,36,16.90
2014,04,13,17,37,16.90
2014,04,13,17,38,17.00
2014,04,13,17,39,16.90
2014,04,13,17,40,16.90